When you browse on this site, cookies collect data to enhance your experience and personalize the content and advertising you see.
Visit our Privacy Policy to learn more. By continuing to use the site, you agree to this use of cookies and data.
  • Em Portugal
  • Lista de países
  • Para 7 dias
  • Temperatura da água
  • Mapas de satélite
  • Mapa do tempo
  • Widgets de tempo
  • user-avatar
    Iniciar Sessão

    Previsão horária em Sivkova

    Hoje, 23 Maio, Quinta-feira

    Tempo Temperatura Precipitação Vento Pressão Humidade
    00:00 +15°C° 0 mm 2 m/s 737 mmHg 94%
    01:00 +14°C° 0 mm 2 m/s 737 mmHg 94%
    02:00 +14°C° 0 mm 2 m/s 736 mmHg 94%
    03:00 +14°C° 0 mm 2 m/s 736 mmHg 94%
    04:00 +14°C° 0 mm 2 m/s 736 mmHg 94%
    05:00 +15°C° 0 mm 2 m/s 736 mmHg 94%
    06:00 +16°C° 0 mm 2 m/s 736 mmHg 90%
    07:00 +18°C° 0 mm 2 m/s 736 mmHg 85%
    08:00 +19°C° 0 mm 3 m/s 736 mmHg 82%
    09:00 +20°C° 0.5 mm 3 m/s 736 mmHg 76%
    10:00 +22°C° 0.5 mm 3 m/s 736 mmHg 70%
    11:00 +24°C° 0.5 mm 3 m/s 735 mmHg 64%
    12:00 +25°C° 0 mm 3 m/s 735 mmHg 60%
    13:00 +25°C° 0 mm 3 m/s 735 mmHg 56%
    14:00 +26°C° 0 mm 2 m/s 735 mmHg 52%
    15:00 +25°C° 0.8 mm 2 m/s 735 mmHg 60%
    16:00 +24°C° 0.8 mm 3 m/s 735 mmHg 68%
    17:00 +22°C° 0.8 mm 3 m/s 735 mmHg 76%
    18:00 +20°C° 0.4 mm 3 m/s 735 mmHg 80%
    19:00 +19°C° 0.4 mm 2 m/s 735 mmHg 83%
    20:00 +17°C° 0.4 mm 2 m/s 735 mmHg 86%
    21:00 +17°C° 0 mm 2 m/s 736 mmHg 88%
    22:00 +16°C° 0 mm 2 m/s 736 mmHg 89%
    23:00 +15°C° 0 mm 1 m/s 736 mmHg 91%

    Amanhã, 24 Maio, Sexta-feira

    Tempo Temperatura Precipitação Vento Pressão Humidade
    00:00 +15°C° 0 mm 1 m/s 736 mmHg 91%
    01:00 +15°C° 0 mm 1 m/s 736 mmHg 92%
    02:00 +14°C° 0 mm 2 m/s 737 mmHg 93%
    03:00 +14°C° 0 mm 2 m/s 737 mmHg 94%
    04:00 +14°C° 0 mm 2 m/s 737 mmHg 95%
    05:00 +13°C° 0 mm 3 m/s 738 mmHg 95%
    06:00 +14°C° 0 mm 3 m/s 738 mmHg 94%
    07:00 +14°C° 0 mm 4 m/s 739 mmHg 92%
    08:00 +14°C° 0 mm 4 m/s 739 mmHg 91%
    09:00 +14°C° 0 mm 4 m/s 739 mmHg 90%
    10:00 +14°C° 0 mm 4 m/s 739 mmHg 88%
    11:00 +14°C° 0 mm 4 m/s 739 mmHg 87%
    12:00 +14°C° 0 mm 4 m/s 739 mmHg 86%
    13:00 +14°C° 0 mm 4 m/s 740 mmHg 85%
    14:00 +15°C° 0 mm 4 m/s 740 mmHg 84%
    15:00 +15°C° 0 mm 4 m/s 740 mmHg 84%
    16:00 +14°C° 0 mm 4 m/s 740 mmHg 84%
    17:00 +14°C° 0 mm 4 m/s 740 mmHg 85%
    18:00 +14°C° 0 mm 4 m/s 740 mmHg 86%
    19:00 +14°C° 0 mm 3 m/s 740 mmHg 86%
    20:00 +13°C° 0 mm 3 m/s 740 mmHg 87%
    21:00 +13°C° 0 mm 3 m/s 739 mmHg 90%
    22:00 +12°C° 0 mm 4 m/s 739 mmHg 92%
    23:00 +12°C° 0 mm 4 m/s 739 mmHg 95%

    Depois de amanhã, 25 Maio, Sábado

    Tempo Temperatura Precipitação Vento Pressão Humidade
    00:00 +12°C° 0.1 mm 4 m/s 739 mmHg 95%
    01:00 +12°C° 0.1 mm 4 m/s 739 mmHg 95%
    02:00 +12°C° 0.1 mm 4 m/s 739 mmHg 95%
    03:00 +12°C° 0.2 mm 4 m/s 739 mmHg 95%
    04:00 +13°C° 0.2 mm 4 m/s 738 mmHg 95%
    05:00 +13°C° 0.2 mm 4 m/s 738 mmHg 95%
    06:00 +14°C° 0.1 mm 4 m/s 738 mmHg 94%
    07:00 +15°C° 0.1 mm 5 m/s 738 mmHg 92%
    08:00 +16°C° 0.1 mm 5 m/s 738 mmHg 90%
    09:00 +17°C° 0.1 mm 5 m/s 738 mmHg 87%
    10:00 +19°C° 0.1 mm 5 m/s 737 mmHg 84%
    11:00 +20°C° 0.1 mm 5 m/s 737 mmHg 82%
    12:00 +20°C° 0.1 mm 5 m/s 737 mmHg 81%
    13:00 +20°C° 0.1 mm 5 m/s 736 mmHg 81%
    14:00 +20°C° 0.1 mm 5 m/s 736 mmHg 81%
    15:00 +20°C° 1.3 mm 4 m/s 736 mmHg 82%
    16:00 +19°C° 1.3 mm 4 m/s 735 mmHg 82%
    17:00 +19°C° 1.3 mm 4 m/s 735 mmHg 83%
    18:00 +18°C° 0.2 mm 3 m/s 735 mmHg 86%
    19:00 +17°C° 0.2 mm 3 m/s 735 mmHg 89%
    20:00 +16°C° 0.2 mm 2 m/s 735 mmHg 92%
    21:00 +15°C° 0 mm 2 m/s 734 mmHg 92%
    22:00 +15°C° 0 mm 2 m/s 734 mmHg 92%
    23:00 +14°C° 0 mm 2 m/s 734 mmHg 93%

    26 Maio, Domingo

    Tempo Temperatura Precipitação Vento Pressão Humidade
    00:00 +14°C° 0 mm 2 m/s 734 mmHg 93%
    01:00 +14°C° 0 mm 2 m/s 734 mmHg 93%
    02:00 +14°C° 0 mm 2 m/s 734 mmHg 93%
    03:00 +14°C° 0 mm 2 m/s 734 mmHg 94%
    04:00 +14°C° 0 mm 2 m/s 734 mmHg 94%
    05:00 +15°C° 0 mm 2 m/s 734 mmHg 94%
    06:00 +16°C° 0 mm 2 m/s 735 mmHg 91%
    07:00 +17°C° 0 mm 2 m/s 735 mmHg 87%
    08:00 +18°C° 0 mm 3 m/s 735 mmHg 83%
    09:00 +19°C° 0 mm 3 m/s 735 mmHg 76%
    10:00 +20°C° 0 mm 3 m/s 735 mmHg 69%
    11:00 +22°C° 0 mm 3 m/s 735 mmHg 62%
    12:00 +22°C° 0.1 mm 3 m/s 735 mmHg 61%
    13:00 +22°C° 0.1 mm 3 m/s 735 mmHg 60%
    14:00 +22°C° 0.1 mm 4 m/s 735 mmHg 59%
    15:00 +22°C° 0.1 mm 3 m/s 735 mmHg 61%
    16:00 +22°C° 0.1 mm 3 m/s 735 mmHg 64%
    17:00 +21°C° 0.1 mm 3 m/s 736 mmHg 66%
    18:00 +19°C° 0 mm 3 m/s 736 mmHg 71%
    19:00 +17°C° 0 mm 3 m/s 736 mmHg 75%
    20:00 +14°C° 0 mm 3 m/s 736 mmHg 79%
    21:00 +13°C° 0 mm 3 m/s 736 mmHg 82%
    22:00 +12°C° 0 mm 3 m/s 737 mmHg 85%
    23:00 +12°C° 0 mm 3 m/s 737 mmHg 88%

    27 Maio, Segunda-feira

    Tempo Temperatura Precipitação Vento Pressão Humidade
    00:00 +11°C° 0 mm 3 m/s 737 mmHg 89%
    01:00 +11°C° 0 mm 3 m/s 737 mmHg 90%
    02:00 +11°C° 0 mm 3 m/s 737 mmHg 90%
    03:00 +11°C° 0 mm 3 m/s 737 mmHg 88%
    04:00 +11°C° 0 mm 3 m/s 738 mmHg 86%
    05:00 +12°C° 0 mm 3 m/s 738 mmHg 84%
    06:00 +14°C° 0 mm 3 m/s 738 mmHg 81%
    07:00 +15°C° 0 mm 4 m/s 738 mmHg 79%
    08:00 +18°C° 0 mm 4 m/s 738 mmHg 76%
    09:00 +19°C° 0.1 mm 4 m/s 739 mmHg 74%
    10:00 +20°C° 0.1 mm 5 m/s 739 mmHg 71%
    11:00 +21°C° 0.1 mm 5 m/s 739 mmHg 68%
    12:00 +21°C° 0.5 mm 5 m/s 739 mmHg 69%
    13:00 +21°C° 0.5 mm 5 m/s 739 mmHg 70%
    14:00 +22°C° 0.5 mm 5 m/s 739 mmHg 71%
    15:00 +22°C° 0.2 mm 4 m/s 739 mmHg 73%
    16:00 +22°C° 0.2 mm 4 m/s 739 mmHg 74%
    17:00 +21°C° 0.2 mm 3 m/s 739 mmHg 76%
    18:00 +20°C° 0.3 mm 3 m/s 740 mmHg 81%
    19:00 +18°C° 0.3 mm 2 m/s 740 mmHg 86%
    20:00 +17°C° 0.3 mm 2 m/s 740 mmHg 92%
    21:00 +17°C° 0.1 mm 2 m/s 740 mmHg 93%
    22:00 +16°C° 0.1 mm 2 m/s 740 mmHg 94%
    23:00 +16°C° 0.1 mm 2 m/s 740 mmHg 95%

    28 Maio, Terça-feira

    Tempo Temperatura Precipitação Vento Pressão Humidade
    00:00 +15°C° 0 mm 2 m/s 741 mmHg 95%
    01:00 +15°C° 0 mm 2 m/s 741 mmHg 96%
    02:00 +15°C° 0 mm 2 m/s 741 mmHg 96%
    03:00 +14°C° 0 mm 3 m/s 741 mmHg 96%
    04:00 +14°C° 0 mm 3 m/s 741 mmHg 96%
    05:00 +16°C° 0 mm 3 m/s 741 mmHg 96%
    06:00 +17°C° 0 mm 3 m/s 742 mmHg 92%
    07:00 +19°C° 0 mm 3 m/s 742 mmHg 89%
    08:00 +20°C° 0 mm 4 m/s 742 mmHg 85%
    09:00 +21°C° 0 mm 4 m/s 742 mmHg 80%
    10:00 +23°C° 0 mm 4 m/s 742 mmHg 75%
    11:00 +25°C° 0 mm 4 m/s 742 mmHg 70%
    12:00 +25°C° 0 mm 4 m/s 742 mmHg 68%
    13:00 +26°C° 0 mm 4 m/s 742 mmHg 66%
    14:00 +26°C° 0 mm 4 m/s 742 mmHg 65%
    15:00 +26°C° 0.1 mm 3 m/s 742 mmHg 68%
    16:00 +26°C° 0.1 mm 3 m/s 742 mmHg 71%
    17:00 +25°C° 0.1 mm 3 m/s 742 mmHg 74%
    18:00 +24°C° 0.3 mm 3 m/s 742 mmHg 80%
    19:00 +21°C° 0.3 mm 3 m/s 742 mmHg 86%
    20:00 +20°C° 0.3 mm 2 m/s 743 mmHg 92%
    21:00 +19°C° 0 mm 2 m/s 743 mmHg 93%
    22:00 +19°C° 0 mm 2 m/s 743 mmHg 93%
    23:00 +18°C° 0 mm 2 m/s 743 mmHg 94%
    Mostrar mais